Location: Fort Worth, Tx
(32.7431°N, 97.3695°W)
Time: 13:51:11
(UTC-05:00)

Courier 1B Rocket - Visible Passes

Search period start: 22 February 2024 00:00
Search period end: 03 March 2024 00:00
Orbit: 920 x 1202 km, 28.2° (Epoch: 21 February)

Date Brightness Start Highest point End Pass type
(mag) Time Alt. Az. Time Alt. Az. Time Alt. Az.
22 Feb 5.2 06:07:50 45° SSW 06:09:06 53° S 06:15:18 10° E visible
23 Feb 6.3 05:10:32 31° ESE 05:10:32 31° ESE 05:14:05 10° E visible
23 Feb 5.2 06:56:53 20° WSW 07:01:13 59° S 07:07:33 10° ESE visible
24 Feb 5.0 05:59:33 54° SSW 06:00:12 57° S 06:06:24 10° E visible
25 Feb 6.5 05:02:13 29° ESE 05:02:13 29° ESE 05:05:15 10° E visible
25 Feb 5.2 06:48:34 23° WSW 06:52:19 55° S 06:58:33 10° ESE visible
26 Feb 5.0 05:51:13 58° S 05:51:19 58° S 05:57:28 10° ESE visible
27 Feb 6.7 04:53:53 25° ESE 04:53:53 25° ESE 04:56:24 10° E visible
27 Feb 5.3 06:40:14 26° WSW 06:43:25 49° S 06:49:28 10° ESE visible
28 Feb 5.2 05:42:55 53° SSE 05:42:55 53° SSE 05:48:30 10° ESE visible
28 Feb 5.9 07:29:56 10° W 07:35:23 32° SSW 07:40:57 10° SE visible
29 Feb 6.9 04:45:37 21° ESE 04:45:37 21° ESE 04:47:31 10° ESE visible
29 Feb 5.5 06:31:59 28° WSW 06:34:28 40° SSW 06:40:16 10° SE visible
01 Mar 5.6 05:34:43 43° SSE 05:34:43 43° SSE 05:39:28 10° ESE visible
01 Mar 6.3 07:21:30 10° WSW 07:26:21 24° SSW 07:31:15 10° SSE visible
02 Mar 7.2 04:37:29 16° ESE 04:37:29 16° ESE 04:38:35 10° ESE visible
02 Mar 5.8 06:23:51 28° SW 06:25:28 32° SSW 06:30:53 10° SE visible
